User: anonymous   Login
Location: Unspecified
(0.0000°N, 0.0000°E)
Time: 02:36:44
(UTC+00:00)
Language:

APRIZESAT 3 - Orbit

View from above orbital plane
View from above orbital plane
View from above satellite
View from above satellite

Ground track
Ground track

The orbit data is extracted from the following two-line orbital elements,

1 35686U 09041F   15183.43931125  .00000234  00000-0  32170-4 0  9994
2 35686 098.1979 145.1293 0074098 178.9804 181.1575 14.86418291320831
Epoch (UTC): 02 July 2015 10:32:36
Eccentricity: 0.0074098
inclination: 98.1979°
perigee height: 557 km
apogee height: 661 km
right ascension of ascending node: 145.1293°
argument of perigee: 178.9804°
revolutions per day: 14.86418291
mean anomaly at epoch: 181.1575°
orbit number at epoch: 32083

The dashed part of the orbit path shows where the satellite is in the earth's shadow,  

DLR